Location: Thunder Bay
(48.4000°N, 89.2330°W)
Time: 18:55:34
(UTC-04:00)

X-37B - Visible Passes

Search period start: 22 June 2021 00:00
Search period end: 02 July 2021 00:00
Orbit: 386 x 389 km, 45.0° (Epoch: 10 June)

Date Brightness Start Highest point End Pass type
(mag) Time Alt. Az. Time Alt. Az. Time Alt. Az.
22 Jun 1.5 03:52:39 28° S 03:52:39 28° S 03:55:06 10° SE visible
22 Jun 2.0 23:39:02 10° SSW 23:41:15 20° SSE 23:41:15 20° SSE visible
23 Jun 2.4 22:41:36 10° S 22:43:21 14° SSE 22:45:07 10° ESE visible
24 Jun 1.1 00:16:29 10° SW 00:19:27 36° SSE 00:19:35 36° SSE visible
24 Jun 1.5 23:18:25 10° SW 23:21:13 28° SSE 23:24:00 10° E visible
25 Jun 1.4 00:54:28 10° WSW 00:56:42 35° SW 00:56:42 35° SW visible
25 Jun 0.9 23:56:12 10° WSW 23:59:14 42° S 00:01:00 21° ESE visible
26 Jun 2.9 01:32:38 10° W 01:33:17 15° WSW 01:33:17 15° WSW visible
26 Jun 1.2 22:58:00 10° WSW 23:00:58 36° SSE 23:03:56 10° E visible
27 Jun 0.9 00:34:18 10° WSW 00:37:20 42° S 00:37:22 42° S visible
27 Jun 0.9 23:35:59 10° WSW 23:39:03 45° S 23:41:21 16° ESE visible
28 Jun 2.7 01:12:34 10° W 01:13:36 17° WSW 01:13:36 17° WSW visible
28 Jun 1.0 22:37:43 10° WSW 22:40:46 43° S 22:43:49 10° ESE visible
29 Jun 1.2 00:14:10 10° W 00:17:08 36° SSW 00:17:32 34° S visible
29 Jun 1.0 23:15:49 10° W 23:18:52 42° S 23:21:26 13° ESE visible
30 Jun 2.7 00:52:39 10° WSW 00:53:41 16° WSW 00:53:41 16° WSW visible
30 Jun 1.7 23:54:06 10° W 23:56:53 28° SSW 23:57:36 25° S visible
01 Jul 1.4 22:55:41 10° W 22:58:40 36° SSW 23:01:30 11° SE visible
